Regional Weather Roundup
Issued by NWS

Home | Current Version | Previous Version | Graphics & Text | Print | Product List | Glossary On
Versions: 1 2 3 4 5 6 7 8 9 10 11 12 13 14 15 16 17 18 19 20 21 22 23 24 25 26 27 28 29 30 31 32 33 34 35 36 37 38 39 40 41 42 43 44 45 46 47 48 49 50
000
ASUS43 KLOT 290306
RWRIL

ILLINOIS REGIONAL WEATHER ROUNDUP
NATIONAL WEATHER SERVICE CHICAGO/ROMEOVILLE IL
1000 PM CDT THU AUG 28 2014

NOTE: "FAIR" INDICATES FEW OR NO CLOUDS BELOW 12,000 FEET WITH NO
SIGNIFICANT WEATHER AND/OR OBSTRUCTIONS TO VISIBILITY.

* THESE STATIONS ARE NOT UNDER NWS QUALITY CONTROL. THEY ALSO MAY NOT
  REPORT WEATHER SUCH AS PRECIPITATION OR FOG.

ILZ001-002-007-009-015-016-024-290400-
NORTHWEST ILLINOIS

CITY           SKY/WX    TMP DP  RH WIND       PRES   REMARKS
MOLINE         MOCLDY    70  67  90 SE10      29.97S
STERLING*      CLOUDY    68  64  88 SE7       30.00S
SAVANNA*       MOCLDY    68  65  89 SE6       29.99S
$$

ILZ003-004-008-010-011-017-018-290400-
NORTH CENTRAL ILLINOIS

CITY           SKY/WX    TMP DP  RH WIND       PRES   REMARKS
ROCKFORD       CLOUDY    65  61  87 E3        30.03F
FREEPORT*      CLOUDY    63  60  93 E8        30.03F
ROCHELLE*      CLOUDY    66  63  90 SE6       30.02F
DE KALB*       CLOUDY    64  62  94 E8        30.03F
PERU*          DRIZZLE   69  67  94 SE6       30.03R
$$

ILZ005-006-012>014-019>023-290400-
NORTHEAST ILLINOIS

CITY           SKY/WX    TMP DP  RH WIND       PRES   REMARKS
CHICAGO-OHARE  LGT RAIN  71  62  73 E8        30.04F
CHICAGO-MIDWAY LGT RAIN  73  65  75 E7        30.04F
AURORA         CLOUDY    69  64  84 SE7       30.03F
LANSING*       CLOUDY    71  64  78 CALM      30.06S
JOLIET*        RAIN      67  65  92 E7        30.04F
WAUKEGAN       CLOUDY    68  61  78 E8        30.04F
DUPAGE AIRPORT LGT RAIN  67  64  90 E7        30.03F
KANKAKEE*      CLOUDY    72  67  85 NE6       30.06S
WHEELING       CLOUDY    70  64  81 CALM      30.06F
MORRIS*        LGT RAIN  69  69 100 SE6       30.03F
ROMEOVILLE*    DRIZZLE   68  67  95 SE5       30.04F
NORTHERLY ISL    N/A     71  64  78 E6          N/A
$$

LMZ740>746-290400-
SOUTHERN LAKE MICHIGAN

STATION/POSITION SKY/WX   TEMP    WIND        PRES    VSBY  WAVE
                          AIR SEA DIR/SP/G                  HT/PER
                          (F)     (DEG/KT/KT) (MB)    (MI)  (FT/S)
SOUTHERN BUOY              69 69  100/ 14/ 16 1017.9F         1/ 3
WAUKEGAN HARBOR            71     100/ 10/ 11   N/A
HARRISON CRIB              71     100/  8/  9   N/A
BURNHAM HARBOR             71     100/  5/  6   N/A
CALUMET HARBOR             72      90/  5/  6 1016.4F
MICHIGAN CITY              71      90/  3/  5   N/A
MICHIGAN CITY 6N           72 72  120/  6/  8   N/A           1/ 3
ST. JOSEPH                 72 71  110/ 10/ 12   N/A           1/ 2
$$

ILZ025>027-034>036-040-047-049-050-058-095>099-290400-
WEST-CENTRAL ILLINOIS

CITY           SKY/WX    TMP DP  RH WIND       PRES   REMARKS
QUINCY         PTCLDY    72  69  90 E14       29.97R
GALESBURG*     MOCLDY    69  68  95 E6        29.99S
MACOMB*        MOCLDY    69  69  98 E6        30.00S
JACKSONVILLE*  CLOUDY    73  71  92 E7        30.01F
PITTSFIELD*    MOCLDY    75  68  79 E6        30.00R
$$

ILZ028>032-037-038-041>044-048-051>054-059>061-290400-
CENTRAL ILLINOIS

CITY           SKY/WX    TMP DP  RH WIND       PRES   REMARKS
PONTIAC        RAIN      72  70  94 E5        30.05F
DECATUR        LGT RAIN  73  70  90 NW15G23   30.08R
PEORIA         CLOUDY    73  69  87 SE7       30.01S
LACON*         CLOUDY    69  67  93 CALM      30.00F
LINCOLN*       CLOUDY    71  69  94 E12       30.00F
SPRINGFIELD    LGT RAIN  72  71  97 E10       30.02F
TAYLORVILLE    CLOUDY    70  68  94 N9G16     30.05F
$$

ILZ033-039-045-046-055>057-062-063-290400-
EAST-CENTRAL ILLINOIS

CITY           SKY/WX    TMP DP  RH WIND       PRES   REMARKS
CHAMPAIGN      CLOUDY    73  70  90 E6        30.04S
DANVILLE*      MOCLDY    71  67  87 E3        30.03R
RANTOUL*       CLOUDY    76  67  74 E5        30.06R
MATTOON        MOCLDY    74  69  85 CALM      30.03R
PARIS*         MOCLDY    70  69  96 CALM      30.05S
$$

ILZ079-100>102-290400-
SOUTHWEST ILLINOIS

CITY           SKY/WX    TMP DP  RH WIND       PRES   REMARKS
ALTON          PTCLDY    72  70  94 E7        29.99S
BELLEVILLE     MOCLDY    74  74  99 CALM      29.98S
CAHOKIA*       CLEAR     75  72  88 CALM      29.97S
SPARTA*        DRIZZLE   74  73  97 CALM      29.99F
$$

ILZ064>066-069>071-074>076-080>082-084>086-088>090-092>094-290400-
SOUTH-CENTRAL ILLINOIS

CITY           SKY/WX    TMP DP  RH WIND       PRES   REMARKS
CARBONDALE     CLOUDY    73  71  93 CALM      29.99F
CAIRO*         MOCLDY    75  71  87 CALM      29.99S FOG
EFFINGHAM*     RAIN      75  70  84 CALM      30.03R
MARION         CLOUDY    75  72  88 E7        30.00F
MT. VERNON     CLOUDY    73  68  83 E6        30.03R
CENTRALIA*     CLOUDY    72  70  92 NE3       30.01S FOG
SALEM*         CLOUDY    75  74  96 CALM      30.02R FOG
METROPOLIS*    CLOUDY    72  72 100 CALM      29.99F FOG
$$

ILZ067-068-072-073-078-083-087-091-290400-
SOUTHEAST ILLINOIS

CITY           SKY/WX    TMP DP  RH WIND       PRES   REMARKS
LAWRENCEVILLE  MOCLDY    75  71  87 CALM      30.03S
FLORA*         MOCLDY    74  72  92 CALM      30.03S
FAIRFIELD*     CLOUDY    75  73  94 CALM      30.02R FOG
HARRISBURG*    CLOUDY    73  73 100 CALM      30.02S FOG
ROBINSON*      MOCLDY    76  74  95 S5        30.04R
CARMI*         CLOUDY    74  73  97 CALM      30.01F FOG
$$

ABBREVIATIONS USED IN REMARKS
   TC - TEMPERATURE IN CELSIUS
  WCI - WIND CHILL INDEX
   HX - HEAT INDEX
  VSB - VISIBILITY
$$




USA.gov is the U.S. government's official web portal to all federal, state and local government web resources and services.